Location: Unspecified
(0.0000°N, 0.0000°E)
Time: 20:09:04
(UTC+00:00)

Envisat - Pass Details

Date: 31 May 2019
Orbit: 764 x 766 km, 98.1° (Epoch: 26 June)

Event Time Altitude Azimuth Distance (km) Brightness Sun altitude
Rises 20:08:00 0° 209° (SSW) 3,231 6.3 -29.9°
Reaches altitude 10° 20:13:13 10° 255° (WSW) 2,300 6.0 -31.1°
Maximum altitude 20:13:25 10° 257° (WSW) 2,298 6.0 -31.2°
Drops below altitude 10° 20:13:36 10° 259° (W) 2,299 6.1 -31.2°
Sets 20:18:53 0° 306° (NW) 3,220 7.3 -32.4°
